Location: Montferrer
(42.3415°N, 1.4286°E)
Time: 14:05:23
(UTC+00:00)

Daily predictions for brighter satellites

Satellite Brightness Start Highest point End
(mag) Time Altitude Azimuth Time Altitude Azimuth Time Altitude Azimuth
Nadezhda 1 Rocket 4.2 19:56:48 10° N 20:03:08 59° E 20:09:23 10° SSE
Meteor 2-10 Rocket 3.6 20:00:18 10° N 20:05:27 66° E 20:10:46 10° SSE
NOSS 3-3 (A) 4.3 20:03:01 10° S 20:08:15 38° ESE 20:13:59 10° NE
Geosat 4.3 20:03:22 10° SE 20:08:17 58° ENE 20:13:13 10° NNW
NOSS 3-3 (C) 4.4 20:03:08 10° S 20:08:21 37° ESE 20:14:05 10° NE
Cosmos 2333 Rocket 2.9 20:03:29 10° SSE 20:08:32 34° ESE 20:13:39 10° NE
SPOT 3 Rocket 3.6 20:04:55 10° SSE 20:10:08 84° ENE 20:15:23 10° NNW
ATLAS 5 CENTAUR R/B 1.8 20:07:52 10° SW 20:11:56 74° NW 20:16:29 10° NNE
IRIS 4.2 20:07:57 10° WSW 20:11:58 68° S 20:14:38 10° E
SL-16 R/B 4.0 20:08:21 10° SW 20:13:36 38° WNW 20:18:54 10° N
Cosmos 783 Rocket 4.5 20:16:11 10° SSW 20:21:25 79° ESE 20:26:39 10° NNE
Atlas Centaur 2 3.4 20:17:29 10° SW 20:21:39 24° S 20:26:25 11° SE
Cosmos 1844 Rocket 2.7 20:17:12 10° NNW 20:22:48 76° ENE 20:28:21 10° SSE
Resurs 01 Rocket 1.6 20:19:31 10° SSE 20:23:56 77° ENE 20:28:20 10° N
Cosmos 2278 Rocket 3.9 20:21:15 10° N 20:25:22 20° NE 20:29:26 10° E
ATLAS CENTAUR R/B 2.6 20:23:43 10° N 20:26:51 26° NE 20:29:53 10° ESE
ATLAS 2AS CENTAUR R/B 4.5 20:20:58 10° NNW 20:27:06 25° NNE 20:32:52 10° E
Cosmos 1758 Rocket 3.6 20:23:12 10° S 20:27:40 75° E 20:32:10 10° NNE
CZ-2C R/B 4.4 20:25:51 10° N 20:30:34 62° WNW 20:35:16 10° SSW
Cosmos 1538 Rocket 4.5 20:28:11 10° S 20:33:11 42° ESE 20:38:11 10° NNE
Alouette 2 Rocket 4.0 20:33:45 10° N 20:37:49 61° ENE 20:43:22 11° SSE
Cosmos 1315 Rocket 4.2 20:34:57 10° NNE 20:38:23 25° ENE 20:40:57 15° ESE
OAO 2 Rocket 4.1 20:33:42 10° WSW 20:38:32 38° S 20:42:41 14° ESE
Cosmos 773 Rocket 4.0 20:34:51 10° SSW 20:40:07 76° ESE 20:45:26 10° NNE
ERS-1 Rocket 4.1 20:36:42 13° ESE 20:40:27 30° ENE 20:44:47 10° N
BREEZE-M DEB (TANK) 4.4 20:33:20 10° W 20:42:02 40° NNW 20:45:21 10° NE
USA 215 3.8 20:37:43 10° ENE 20:43:30 33° SE 20:49:16 10° S
USA 245 3.6 20:42:46 16° SE 20:45:21 52° ENE 20:49:36 10° N
Meteor 1-11 4.3 20:40:31 10° S 20:46:02 59° E 20:51:37 10° NNE
CREW DRAGON DEMO-1 DEB 3.3 20:44:02 10° SSW 20:46:53 37° SE 20:49:46 10° ENE
Cosmos 1953 Rocket 3.5 20:47:00 10° S 20:51:17 71° E 20:55:36 10° NNE
DELTA 2 R/B (1) 3.8 20:49:55 10° SW 20:55:16 49° SSE 21:00:38 10° E
Cosmos 1400 Rocket 3.0 20:53:28 10° NNW 20:57:24 66° W 21:00:47 13° S
Cosmos 1455 3.7 20:55:35 10° NNW 20:59:07 35° W 21:02:39 10° SSW
IGS 5A 3.4 20:56:14 17° SSE 20:59:19 76° ENE 21:03:29 10° N
Cosmos 1825 Rocket 4.4 21:00:41 10° SSW 21:05:00 53° W 21:09:24 10° N
Terra 2.9 21:02:39 18° ESE 21:05:17 30° ENE 21:09:25 10° N
BREEZE M DEB (TANK) 2.0 21:04:30 10° NW 21:07:01 55° NNE 21:07:45 32° E
Cosmos 2181 Rocket 4.0 21:01:47 10° N 21:08:06 71° E 21:12:47 18° SSE
Spot 2 Rocket 3.5 21:04:59 16° S 21:09:07 82° WSW 21:14:15 10° NNW
NOSS 0 Rocket 4.1 21:07:32 10° S 21:13:25 51° ESE 21:19:22 10° NE
Cosmos 1980 4.1 21:11:07 18° SSE 21:14:54 41° ESE 21:20:11 10° NE
Cosmos 967 Rocket 4.5 21:17:37 10° SSW 21:24:04 76° ESE 21:30:32 10° NE
CARTOSAT-1 3.5 21:23:08 28° SSE 21:25:19 73° ENE 21:29:38 10° N
Genesis I 3.4 21:24:45 30° S 21:26:10 45° ESE 21:29:54 10° NE
COSMOS 2428 3.1 21:21:31 10° SSW 21:27:09 67° WNW 21:32:50 10° NNE
Cosmos 1680 Rocket 3.9 21:27:04 26° SSE 21:29:36 44° ESE 21:34:38 10° NNE
Cosmos 2219 Rocket 2.8 21:24:47 10° SW 21:30:15 56° WNW 21:35:47 10° NNE
USA 81 4.2 21:27:11 14° SSW 21:31:47 73° W 21:37:04 10° N
GEOS 3 Rocket 3.7 21:26:37 10° NE 21:32:02 84° NW 21:37:25 10° SW
Cosmos 2237 Rocket 2.3 21:28:34 20° S 21:32:22 54° ESE 21:37:55 10° NNE
Cosmos 2058 3.5 21:32:49 34° SE 21:33:49 40° E 21:37:42 10° NNE
Cosmos 2221 2.5 21:34:53 10° N 21:39:15 66° E 21:40:46 38° SSE
SPOT 1/Viking Rocket 4.1 21:39:02 20° S 21:42:26 53° W 21:47:29 10° NNW
Cosmos 1408 3.5 21:46:59 31° E 21:46:59 31° E 21:49:59 10° NNE
Cosmos 1869 3.2 21:43:48 10° N 21:47:50 83° E 21:48:59 46° SSE
Cosmos 923 Rocket 3.9 21:44:28 20° SSW 21:48:13 85° ESE 21:53:33 10° NNE
Cosmos 2344 3.6 21:42:06 14° S 21:48:25 52° ESE 21:55:51 10° NE
NOSS 3-4 (A) 4.2 21:44:40 10° NNW 21:51:37 61° NE 21:56:13 25° ESE
NOSS 3-4 (C) 4.2 21:44:46 10° NNW 21:51:43 60° NE 21:56:19 25° ESE
Cosmos 2333 Rocket 3.7 21:47:31 10° WSW 21:52:44 36° WNW 21:58:01 10° N
BREEZE-M DEB (TANK) 3.5 21:55:31 28° E 21:55:31 28° E 21:58:49 10° ENE
Cosmos 1892 2.5 21:55:14 57° SSE 21:55:55 76° E 21:59:43 10° N
SPOT 5 3.3 22:00:11 30° SSW 22:02:29 55° W 22:07:11 10° NNW
Elektron 1 4.1 22:02:27 38° SW 22:03:33 78° NW 22:08:02 10° NE
Cosmos 1943 Rocket 4.3 21:59:53 10° N 22:03:34 17° NE 22:07:14 10° E
ATLAS CENTAUR R/B 2.5 22:02:36 10° WNW 22:05:38 25° WSW 22:06:04 24° SW
Cosmos 2184 Rocket 4.1 22:01:37 22° SSW 22:05:53 73° W 22:12:13 10° N
Cosmos 1624 Rocket 4.5 22:03:23 10° N 22:08:27 48° ENE 22:10:05 36° ESE
Cosmos 2278 Rocket 2.3 22:04:22 10° NNW 22:10:01 71° WSW 22:12:09 39° S
Atlas Centaur 2 4.0 22:06:08 10° SW 22:08:58 17° SSW 22:08:58 17° SSW
Cosmos 1076 Rocket 3.4 22:10:17 49° SSW 22:11:24 84° W 22:15:41 10° N
Cosmos 2151 3.5 22:12:30 41° E 22:12:36 41° E 22:16:36 10° NNE
Cosmos 44 3.0 22:13:17 54° ESE 22:13:17 54° ESE 22:17:34 10° NE
BREEZE-M (TANK) 4.2 22:09:09 10° SW 22:13:37 82° SE 22:34:02 10° ENE
SL-16 R/B 2.5 22:18:00 42° SE 22:18:58 46° ESE 22:24:23 10° NE
ERS-1 Rocket 4.2 22:16:43 22° SW 22:19:08 34° W 22:23:42 10° NNW
ATLAS 2AS CENTAUR R/B 2.8 22:11:45 10° NW 22:19:20 80° NE 22:22:32 36° SE
Gblst 52 Del rocket 4.5 22:16:24 10° WNW 22:22:06 59° SW 22:23:59 42° SSE
Cosmos 158 Rocket 4.1 22:22:17 28° SW 22:24:46 63° WNW 22:29:39 10° NNE
USA 215 3.4 22:20:17 10° NE 22:26:50 73° NW 22:33:20 10° WSW
Cosmos 371 Rocket 4.4 22:26:24 10° N 22:30:49 34° ENE 22:31:57 30° E
Gbstr 26 Del rocket 4.2 22:33:35 26° ENE 22:33:35 26° ENE 22:35:27 10° ENE
Cosmos 1340 4.3 22:37:50 25° ENE 22:37:50 25° ENE 22:40:06 10° NNE
Cosmos 1371 Rocket 3.9 22:31:59 10° NNW 22:37:17 84° WSW 22:38:27 56° S
Thor Agena Rocket 3.4 22:32:32 10° NNE 22:37:37 68° ESE 22:38:26 57° SSE
MOS 1-B Rocket 4.3 22:30:35 10° NNE 22:37:53 65° E 22:40:00 43° SSE
Cosmos 1825 2.1 22:38:19 79° NW 22:38:19 79° NW 22:41:58 10° N
Cosmos 1151 Rocket 3.8 22:36:42 10° N 22:40:44 37° ENE 22:40:49 37° E
DELTA 2 R/B (1) 3.4 22:35:53 10° W 22:41:26 68° S 22:42:54 48° ESE
Terra 3.2 22:41:32 25° SW 22:42:58 30° W 22:47:08 10° NW
Lacrosse 5 rocket 3.9 22:40:25 10° NNW 22:43:06 17° NNE 22:45:42 10° ENE
Nadezhda 3 Rocket 4.3 22:38:55 10° NNW 22:45:11 62° W 22:47:35 38° SSW
Cosmos 2154 Rocket 4.5 22:43:09 27° SW 22:46:23 55° WNW 22:52:30 10° N
Cosmos 1408 Rocket 4.5 22:47:23 36° E 22:47:23 36° E 22:51:06 10° NNE
Cosmos 1420 Rocket 4.3 22:44:36 10° NNW 22:49:50 58° ENE 22:50:54 49° ESE
Aureole 2 Rocket 3.9 22:50:51 10° NNW 22:52:29 30° NNW 22:52:29 30° NNW
Cosmos 2341 Rocket 3.9 22:51:55 46° S 22:53:58 86° W 23:00:13 10° N
Meteor 2-3 Rocket 4.0 22:56:37 47° ESE 22:57:22 51° E 23:02:52 10° NNE
USA 267 3.3 22:54:25 31° ESE 22:57:48 74° NE 23:04:22 10° NW
Cosmos 2369 Rocket 3.6 22:55:11 10° N 23:00:04 30° NE 23:02:26 22° E
Cosmos 2056 Rocket 3.7 22:55:32 10° NNW 23:00:53 61° WSW 23:01:46 53° SSW
ALOS 2 3.0 23:00:45 49° E 23:00:55 49° ENE 23:05:10 10° N
SL-8 Rocket 3.9 23:00:20 52° S 23:01:57 82° E 23:08:08 10° N
Nimbus 7 Rocket 4.3 23:02:08 10° NNE 23:08:03 71° ESE 23:09:11 57° SSE
Cosmos 1633 4.2 23:10:25 27° NE 23:10:25 27° NE 23:12:32 10° NNE
Cosmos 1048 Rocket 4.5 23:09:33 45° ESE 23:09:33 45° ESE 23:14:32 10° NNE
Meteor 1-26 Rocket 4.5 23:07:22 10° N 23:13:19 63° ENE 23:14:32 51° SE
GP-B 3.0 23:12:05 10° N 23:16:27 86° NNE 23:16:27 86° NNE
Cosmos 2237 Rocket 4.2 23:12:07 10° WSW 23:16:46 25° NW 23:21:26 10° N
BREEZE-M DEB (TANK) 4.5 23:14:37 10° WNW 23:15:57 15° W 23:15:57 15° W
Cosmos 1727 Rocket 4.2 23:14:02 10° N 23:20:14 61° E 23:21:44 48° SE
IRIDIUM 104 4.2 23:23:27 67° SSW 23:24:05 79° W 23:29:20 10° N
Cosmos 405 4.5 23:21:42 10° N 23:24:08 32° NE 23:24:08 32° NE
CZ-4C R/B 3.8 23:19:39 10° NNW 23:26:30 45° NE 23:32:51 16° ESE
Cosmos 1452 Rocket 3.3 23:22:23 10° NNW 23:27:41 83° ENE 23:28:12 72° SE
Cosmos 1933 3.9 23:26:52 10° NNW 23:30:17 54° NW 23:30:17 54° NW
IRIDIUM 114 4.4 23:32:36 58° SW 23:33:16 65° W 23:38:28 10° N
Cosmos 1515 Rocket 3.6 23:29:51 10° N 23:33:56 76° NNE 23:33:56 76° NNE
Cosmos 1328 Rocket 4.1 23:33:38 10° NNW 23:37:30 50° WNW 23:37:30 50° WNW
Cosmos 1346 Rocket 3.3 23:40:41 57° N 23:40:41 57° N 23:43:55 10° N
Cosmos 1782 3.3 23:37:39 10° N 23:40:55 55° NNE 23:40:55 55° NNE
Cosmos 332 Rocket 3.7 23:38:09 10° NNW 23:42:49 71° W 23:42:49 71° W
Cosmos 1606 4.3 23:39:50 10° NNW 23:42:39 28° WNW 23:42:39 28° WNW
COSMOS 2455 2.7 23:41:42 10° NNW 23:47:46 83° WSW 23:48:44 64° SSE
Cosmos 1943 Rocket 2.0 23:42:23 10° NNW 23:48:05 84° WSW 23:48:45 70° S
Helios 1A 3.2 23:52:37 68° N 23:52:37 68° N 23:56:19 10° N
Cosmos 1943 3.2 23:53:17 61° SE 23:53:39 62° ESE 23:59:15 10° NNE
